SNORRE B OILP current weather conditions

sailwx.info

Wind from 050 at 16 knots

Air temperature 4.0° C
Visibility: greater than 5.4 NM
Dewpoint -2.0° C

Last reported at 2016-Feb-13 13:20 UTC.
Time now 2016-Feb-13 15:17 UTC

Location: N 61°32' E 002°13'.
View on Google Maps.

See reports from other nearby stations

  
Tides and Currents Weather Stations Pressure Air Temp Water Temp Dewpoint Dewpoint Depression Visibility Wind Speed Wind Dir Waves Ship Positions
date/time (UTC)wind fromknots sea level pressurealtimeterstation pressurevisibilityair tempwater tempwave heightnotes
2016-Feb-13 14:20 050 16 5.4 3.0
2016-Feb-13 13:50 050 18 5.4 4.0 Light rain showers.
2016-Feb-13 13:20 050 16 5.4 4.0
2016-Feb-13 12:50 050 20 5.4 4.0
2016-Feb-13 12:20 040 20 5.4 3.0
2016-Feb-13 11:50 040 19 5.4 3.0
2016-Feb-13 11:20 040 14 5.4 2.0 Light snow showers.
2016-Feb-13 10:50 040 17 5.4 3.0
2016-Feb-13 10:20 040 16 5.4 4.0
2016-Feb-13 09:50 040 18 5.4 3.0
2016-Feb-13 09:20 030 27 4.9 2.0 Light rain showers.
2016-Feb-13 08:50 030 20 5.4 3.0 Light rain showers.
2016-Feb-13 08:20 050 13 5.4 3.0 Light snow showers.
2016-Feb-13 07:50 040 18 5.4 3.0
2016-Feb-13 07:20 040 19 5.4 3.0
2016-Feb-13 06:50 040 16 5.4 2.0
2016-Feb-13 06:20 040 19 5.4 2.0 Light snow showers.
2016-Feb-13 05:50 040 20 5.4 4.0
2016-Feb-13 05:20 050 19 5.4 4.0
2016-Feb-13 04:50 050 17 5.4 4.0
2016-Feb-13 04:20 050 18 5.4 3.0
2016-Feb-13 03:50 040 17 5.4 2.0
2016-Feb-13 03:20 060 23 gusting 34 1.9 2.0 Light snow showers. Mist.
2016-Feb-13 02:50 050 26 5.4 3.0 Light rain showers.
2016-Feb-13 02:20 020 27 gusting 38 5.4 2.0 Light rain showers.
2016-Feb-13 01:50 040 20 5.4 3.0 Light rain.
2016-Feb-13 01:20 5.4 3.0
2016-Feb-13 00:50 050 18 5.4 3.0 Light rain showers.
2016-Feb-13 00:20 060 14 4.9 3.0 Light rain.
2016-Feb-12 23:50 070 14 5.4 3.0
2016-Feb-12 23:20 060 16 5.4 4.0
2016-Feb-12 22:50 020 13 5.4 2.0
2016-Feb-12 22:20 030 14 5.4 2.0
2016-Feb-12 21:50 060 20 5.4 2.0 Light rain.
2016-Feb-12 21:20 040 22 5.4 3.0 Light rain.
2016-Feb-12 20:50 050 20 5.4 3.0
2016-Feb-12 20:20 050 19 5.4 4.0 Light rain showers.
2016-Feb-12 19:50 040 20 5.4 3.0
2016-Feb-12 19:20 050 24 5.4 3.0 Light rain showers.
2016-Feb-12 18:50 050 27 1.3 2.0 Light rain snow.
2016-Feb-12 18:20 040 20 5.4 5.0
2016-Feb-12 17:50 060 14 5.4 4.0
2016-Feb-12 17:20 040 18 5.4 4.0
2016-Feb-12 16:50 050 13 5.4 2.0 Light rain showers.
2016-Feb-12 16:20 040 27 5.4 3.0 Light rain showers.
2016-Feb-12 15:50 040 20 5.4 4.0
2016-Feb-12 15:20 030 20 5.4 3.0 Light rain showers.
2016-Feb-12 14:50 030 22 gusting 34 4.3 3.0 Light rain snow.
2016-Feb-12 14:20 040 20 5.4 4.0
2016-Feb-12 13:50 040 18 5.4 5.0
2016-Feb-12 13:20 040 19 5.4 4.0
2016-Feb-12 12:50 040 16 5.4 4.0 Light rain showers.
2016-Feb-12 12:20 5.4 4.0
2016-Feb-12 11:50 050 11 5.4 4.0
2016-Feb-12 11:20 050 16 5.4 4.0
2016-Feb-12 10:50 070 12 5.4 4.0 Light rain.
2016-Feb-12 10:20 050 15 2.7 4.0
2016-Feb-12 09:50 060 13 5.4 4.0
2016-Feb-12 09:20 050 17 5.4 4.0
2016-Feb-12 08:50 060 14 5.4 5.0
2016-Feb-12 08:20 070 14 5.4 5.0
2016-Feb-12 07:50 070 13 5.4 5.0
2016-Feb-12 07:20 070 12 5.4 4.0
2016-Feb-12 06:50 070 14 5.4 5.0
2016-Feb-12 06:20 5.4 4.0
2016-Feb-12 05:50 080 12 5.4 5.0
2016-Feb-12 05:20 080 13 5.4 5.0
2016-Feb-12 04:50 060 16 gusting 26 5.4 5.0
2016-Feb-12 04:20 5.4 4.0
2016-Feb-12 03:50 080 11 5.4 4.0
2016-Feb-12 03:20 070 13 5.4 5.0
2016-Feb-12 02:50 080 12 5.4 4.0
2016-Feb-12 02:20 070 12 5.4 5.0
2016-Feb-12 01:50 070 14 gusting 24 5.4 5.0
2016-Feb-12 01:20 070 12 5.4 5.0
2016-Feb-12 00:50 080 12 5.4 4.0
2016-Feb-12 00:20 070 15 5.4 5.0
2016-Feb-11 23:50 070 14 5.4 5.0
2016-Feb-11 23:20 070 14 5.4 5.0
2016-Feb-11 22:50 070 15 gusting 25 5.4 5.0
2016-Feb-11 22:20 070 14 5.4 5.0
2016-Feb-11 21:50 070 13 5.4 4.0
2016-Feb-11 21:20 070 16 5.4 5.0
2016-Feb-11 20:50 070 13 gusting 24 5.4 5.0
2016-Feb-11 20:20 060 16 5.4 5.0
2016-Feb-11 19:50 060 18 5.4 5.0
2016-Feb-11 19:20 060 20 5.4 5.0
2016-Feb-11 18:50 050 24 5.4 5.0
2016-Feb-11 18:20 060 20 5.4 5.0
2016-Feb-11 17:50 060 18 5.4 5.0
2016-Feb-11 17:20 070 15 gusting 27 5.4 5.0
2016-Feb-11 16:50 070 15 5.4 5.0
2016-Feb-11 16:20 060 22 5.4 5.0
2016-Feb-11 15:50 060 17 5.4 5.0
2016-Feb-11 15:20 070 18 5.4 5.0